Hourly Weather Talachyn

Today, 13 August, Thursday

Time Temperature Precipitation Wind Pressure Humidity
00:00 +9°C° 0 mm 3 mps 746 mmHg 91%
01:00 +9°C° 0 mm 2 mps 746 mmHg 91%
02:00 +9°C° 0 mm 2 mps 746 mmHg 94%
03:00 +9°C° 0 mm 2 mps 746 mmHg 93%
04:00 +9°C° 0 mm 2 mps 746 mmHg 91%
05:00 +9°C° 0 mm 2 mps 746 mmHg 89%
06:00 +10°C° 0 mm 2 mps 746 mmHg 86%
07:00 +12°C° 0 mm 2 mps 746 mmHg 84%
08:00 +13°C° 0 mm 2 mps 746 mmHg 80%
09:00 +13°C° 0 mm 3 mps 746 mmHg 73%
10:00 +14°C° 0 mm 3 mps 746 mmHg 65%
11:00 +16°C° 0 mm 3 mps 746 mmHg 58%
12:00 +16°C° 0 mm 3 mps 746 mmHg 59%
13:00 +17°C° 0 mm 3 mps 746 mmHg 59%
14:00 +17°C° 0 mm 3 mps 746 mmHg 60%
15:00 +17°C° 0 mm 3 mps 745 mmHg 62%
16:00 +16°C° 0 mm 3 mps 745 mmHg 64%
17:00 +16°C° 0 mm 3 mps 745 mmHg 67%
18:00 +15°C° 0 mm 2 mps 745 mmHg 71%
19:00 +13°C° 0 mm 2 mps 745 mmHg 75%
20:00 +12°C° 0 mm 2 mps 745 mmHg 80%
21:00 +10°C° 0 mm 2 mps 745 mmHg 81%
22:00 +11°C° 0 mm 1 mps 745 mmHg 83%
23:00 +10°C° 0 mm 1 mps 745 mmHg 85%

Tomorrow, 14 August, Friday

Time Temperature Precipitation Wind Pressure Humidity
00:00 +10°C° 0 mm 1 mps 746 mmHg 85%
01:00 +10°C° 0 mm 1 mps 746 mmHg 85%
02:00 +9°C° 0 mm 1 mps 746 mmHg 85%
03:00 +9°C° 0 mm 1 mps 746 mmHg 87%
04:00 +9°C° 0 mm 1 mps 746 mmHg 88%
05:00 +9°C° 0 mm 1 mps 746 mmHg 90%
06:00 +11°C° 0 mm 1 mps 746 mmHg 85%
07:00 +12°C° 0 mm 1 mps 746 mmHg 81%
08:00 +14°C° 0 mm 1 mps 746 mmHg 77%
09:00 +15°C° 0 mm 2 mps 746 mmHg 72%
10:00 +17°C° 0 mm 2 mps 746 mmHg 67%
11:00 +18°C° 0 mm 2 mps 746 mmHg 63%
12:00 +18°C° 0 mm 2 mps 746 mmHg 62%
13:00 +19°C° 0 mm 2 mps 746 mmHg 60%
14:00 +19°C° 0 mm 2 mps 746 mmHg 59%
15:00 +19°C° 0 mm 2 mps 746 mmHg 61%
16:00 +20°C° 0 mm 1 mps 746 mmHg 62%
17:00 +20°C° 0 mm 1 mps 746 mmHg 64%
18:00 +19°C° 0 mm 1 mps 746 mmHg 70%
19:00 +16°C° 0 mm 1 mps 746 mmHg 75%
20:00 +13°C° 0 mm 0 mps 746 mmHg 81%
21:00 +14°C° 0 mm 1 mps 746 mmHg 83%
22:00 +13°C° 0 mm 1 mps 746 mmHg 84%
23:00 +13°C° 0 mm 1 mps 746 mmHg 86%

Day after tomorrow, 15 August, Saturday

Time Temperature Precipitation Wind Pressure Humidity
00:00 +12°C° 0 mm 1 mps 746 mmHg 88%
01:00 +12°C° 0 mm 2 mps 746 mmHg 89%
02:00 +12°C° 0 mm 2 mps 746 mmHg 90%
03:00 +12°C° 0 mm 2 mps 746 mmHg 91%
04:00 +10°C° 0 mm 2 mps 746 mmHg 92%
05:00 +10°C° 0 mm 2 mps 746 mmHg 92%
06:00 +13°C° 0 mm 2 mps 746 mmHg 87%
07:00 +15°C° 0 mm 2 mps 746 mmHg 83%
08:00 +17°C° 0 mm 2 mps 746 mmHg 78%
09:00 +18°C° 0.1 mm 2 mps 746 mmHg 74%
10:00 +19°C° 0.1 mm 2 mps 746 mmHg 70%
11:00 +21°C° 0.1 mm 2 mps 747 mmHg 66%
12:00 +21°C° 0.3 mm 2 mps 746 mmHg 66%
13:00 +22°C° 0.3 mm 3 mps 746 mmHg 65%
14:00 +22°C° 0.3 mm 3 mps 746 mmHg 64%
15:00 +22°C° 0.1 mm 3 mps 746 mmHg 65%
16:00 +23°C° 0.1 mm 2 mps 745 mmHg 67%
17:00 +23°C° 0.1 mm 2 mps 745 mmHg 69%
18:00 +20°C° 0 mm 2 mps 745 mmHg 73%
19:00 +19°C° 0 mm 2 mps 745 mmHg 78%
20:00 +17°C° 0 mm 2 mps 745 mmHg 82%
21:00 +16°C° 0 mm 2 mps 745 mmHg 85%
22:00 +16°C° 0 mm 2 mps 745 mmHg 87%
23:00 +15°C° 0 mm 2 mps 745 mmHg 89%

16 August, Sunday

Time Temperature Precipitation Wind Pressure Humidity
00:00 +15°C° 0 mm 2 mps 745 mmHg 90%
01:00 +13°C° 0 mm 3 mps 745 mmHg 91%
02:00 +13°C° 0 mm 3 mps 745 mmHg 92%
03:00 +13°C° 0 mm 3 mps 745 mmHg 92%
04:00 +13°C° 0 mm 3 mps 745 mmHg 93%
05:00 +12°C° 0 mm 3 mps 745 mmHg 93%
06:00 +14°C° 0 mm 3 mps 745 mmHg 89%
07:00 +17°C° 0 mm 3 mps 745 mmHg 84%
08:00 +18°C° 0 mm 3 mps 745 mmHg 80%
09:00 +20°C° 0 mm 3 mps 745 mmHg 75%
10:00 +21°C° 0 mm 3 mps 745 mmHg 71%
11:00 +24°C° 0 mm 3 mps 745 mmHg 66%
12:00 +24°C° 0 mm 3 mps 745 mmHg 64%
13:00 +25°C° 0 mm 3 mps 745 mmHg 62%
14:00 +25°C° 0 mm 3 mps 745 mmHg 60%
15:00 +25°C° 0 mm 3 mps 745 mmHg 62%
16:00 +25°C° 0 mm 3 mps 745 mmHg 64%
17:00 +25°C° 0 mm 3 mps 744 mmHg 66%
18:00 +22°C° 0 mm 3 mps 744 mmHg 71%
19:00 +20°C° 0 mm 2 mps 744 mmHg 76%
20:00 +18°C° 0 mm 2 mps 744 mmHg 81%
21:00 +18°C° 0 mm 2 mps 744 mmHg 82%
22:00 +17°C° 0 mm 2 mps 744 mmHg 83%
23:00 +16°C° 0 mm 2 mps 744 mmHg 83%

17 August, Monday

Time Temperature Precipitation Wind Pressure Humidity
00:00 +16°C° 0 mm 2 mps 744 mmHg 84%
01:00 +15°C° 0 mm 2 mps 744 mmHg 85%
02:00 +15°C° 0 mm 2 mps 744 mmHg 86%
03:00 +15°C° 0 mm 2 mps 744 mmHg 86%
04:00 +14°C° 0 mm 2 mps 744 mmHg 87%
05:00 +14°C° 0 mm 2 mps 744 mmHg 87%
06:00 +16°C° 0 mm 2 mps 744 mmHg 83%
07:00 +17°C° 0 mm 2 mps 744 mmHg 79%
08:00 +19°C° 0 mm 2 mps 744 mmHg 75%
09:00 +20°C° 0 mm 2 mps 744 mmHg 69%
10:00 +23°C° 0 mm 2 mps 743 mmHg 64%
11:00 +24°C° 0 mm 2 mps 743 mmHg 59%
12:00 +25°C° 0 mm 2 mps 743 mmHg 56%
13:00 +25°C° 0 mm 2 mps 743 mmHg 54%
14:00 +25°C° 0 mm 2 mps 742 mmHg 52%
15:00 +25°C° 0 mm 2 mps 742 mmHg 55%
16:00 +25°C° 0 mm 2 mps 742 mmHg 59%
17:00 +25°C° 0 mm 2 mps 741 mmHg 62%
18:00 +23°C° 0 mm 1 mps 741 mmHg 65%
19:00 +21°C° 0 mm 1 mps 741 mmHg 68%
20:00 +19°C° 0 mm 1 mps 740 mmHg 71%
21:00 +19°C° 0 mm 1 mps 740 mmHg 74%
22:00 +18°C° 0 mm 1 mps 740 mmHg 76%
23:00 +18°C° 0 mm 1 mps 740 mmHg 78%

18 August, Tuesday

Time Temperature Precipitation Wind Pressure Humidity
00:00 +18°C° 0 mm 1 mps 740 mmHg 78%
01:00 +18°C° 0 mm 1 mps 739 mmHg 78%
02:00 +19°C° 0 mm 1 mps 739 mmHg 77%
03:00 +18°C° 0 mm 1 mps 739 mmHg 79%
04:00 +18°C° 0 mm 1 mps 739 mmHg 81%
05:00 +18°C° 0 mm 1 mps 739 mmHg 82%
06:00 +18°C° 0 mm 1 mps 739 mmHg 83%
07:00 +18°C° 0 mm 2 mps 739 mmHg 83%
08:00 +18°C° 0 mm 2 mps 739 mmHg 83%
09:00 +19°C° 0.1 mm 2 mps 739 mmHg 79%
10:00 +20°C° 0.1 mm 2 mps 739 mmHg 75%
11:00 +21°C° 0.1 mm 3 mps 739 mmHg 70%
12:00 +22°C° 0.3 mm 3 mps 739 mmHg 66%
13:00 +22°C° 0.3 mm 3 mps 739 mmHg 62%
14:00 +24°C° 0.3 mm 3 mps 739 mmHg 58%
15:00 +24°C° 0 mm 3 mps 739 mmHg 60%
16:00 +24°C° 0 mm 3 mps 739 mmHg 62%
17:00 +24°C° 0 mm 2 mps 739 mmHg 64%
18:00 +21°C° 0 mm 2 mps 739 mmHg 68%
19:00 +19°C° 0 mm 2 mps 739 mmHg 73%
20:00 +17°C° 0 mm 2 mps 739 mmHg 77%
21:00 +16°C° 0 mm 2 mps 739 mmHg 77%
22:00 +16°C° 0 mm 2 mps 739 mmHg 77%
23:00 +15°C° 0 mm 1 mps 739 mmHg 77%
Show more